Weather History for CYXU - October, 2011

Change the Weather History Date:

Monday, October 24, 2011

  Actual Average Record
Temperature  
Mean Temperature 54 °F -  
Max Temperature 60 °F 52 °F 68 °F (2001)
Min Temperature 46 °F 37 °F 26 °F (2002)
Degree Days  
Heating Degree Days 11    
Growing Degree Days 4 (Base 50)    
Moisture  
Dew Point 43 °F    
Average Humidity 73    
Maximum Humidity 100    
Minimum Humidity 39    
Precipitation  
Precipitation 0.00 in - - ()
Sea Level Pressure  
Sea Level Pressure 29.93 in    
Wind  
Wind Speed 10 mph ()    
Max Wind Speed 21 mph    
Max Gust Speed 29 mph    
Visibility 13.2 miles    
Events Rain    
Averages and records for this station are not official NWS values.
T = Trace of Precipitation, MM = Missing Value Source: Averaged Metar Reports

Daily Weather History Graph

Daily Weather History Graph

Search for Another Location

Airport or City:

Trip Planner

Search our weather history database for the weather conditions in past years. The results will help you decide how hot, cold, wet, or windy it might be!

Date:

Astronomy

Oct. 24, 2011 Rise Set
Actual Time 7:48 AM EDT 6:28 PM EDT
Civil Twilight 7:19 AM EDT 6:57 PM EDT
Nautical Twilight 6:46 AM EDT 7:30 PM EDT
Astronomical Twilight 6:13 AM EDT 8:03 PM EDT
Moon 5:02 AM EDT (10/24) 4:54 PM EDT (10/24)
Length of Visible Light 11h 37m
Length of Day
10h 39m
Waning Crescent, 7% of the Moon is Illuminated
Oct 24
Waning Crescent
Oct 26
New
Nov 2
First Quarter
Nov 10
Full
Nov 18
Last Quarter

Hourly Weather History & Observations

Time (EDT) Temp. Windchill Dew Point Humidity Pressure Visibility Wind Dir Wind Speed Gust Speed Precip Events Conditions
12:00 AM 51.8 °F - 44.6 °F 76% 29.95 in 15.0 mi South 9.2 mph - N/A   Scattered Clouds
1:00 AM 51.8 °F - 44.6 °F 76% 29.94 in 14.0 mi SSW 9.2 mph - N/A   Scattered Clouds
2:00 AM 50.0 °F - 44.6 °F 82% 29.92 in 15.0 mi SSW 9.2 mph - N/A   Mostly Cloudy
3:00 AM 48.2 °F - 46.4 °F 93% 29.90 in 15.0 mi South 9.2 mph - N/A   Mostly Cloudy
4:00 AM 51.8 °F - 46.4 °F 82% 29.88 in 15.0 mi South 6.9 mph - N/A   Mostly Cloudy
4:35 AM 51.8 °F - - N/A% - 15.0 mi South 11.5 mph 17.3 mph N/A Rain Light Rain Showers
5:00 AM 53.6 °F - 46.4 °F 77% 29.84 in 15.0 mi South 11.5 mph 18.4 mph N/A   Mostly Cloudy
5:48 AM 53.6 °F - - N/A% - 15.0 mi WSW 18.4 mph 26.5 mph N/A Rain Light Rain Showers
6:00 AM 53.6 °F - 48.2 °F 82% 29.87 in 8.0 mi WSW 15.0 mph 24.2 mph N/A Rain Light Rain Showers
7:00 AM 50.0 °F - 50.0 °F 100% 29.86 in 10.0 mi WSW 10.4 mph - N/A Rain Light Rain Showers
8:00 AM 50.0 °F - 48.2 °F 94% 29.84 in 5.0 mi SSW 9.2 mph - N/A Rain Light Rain Showers
8:38 AM 48.2 °F - - N/A% - 5.0 mi SW 9.2 mph - N/A   Overcast
9:00 AM 50.0 °F - 48.2 °F 94% 29.88 in 5.0 mi SW 9.2 mph - N/A   Overcast
10:00 AM 50.0 °F - 48.2 °F 94% 29.89 in 10.0 mi WSW 15.0 mph - N/A   Overcast
11:00 AM 51.8 °F - 46.4 °F 82% 29.91 in 15.0 mi WSW 12.7 mph 19.6 mph N/A   Mostly Cloudy
12:00 PM 53.6 °F - 48.2 °F 82% 29.91 in 15.0 mi West 13.8 mph 20.7 mph N/A   Scattered Clouds
1:00 PM 55.4 °F - 42.8 °F 63% 29.92 in 15.0 mi WNW 16.1 mph 25.3 mph N/A   Partly Cloudy
3:00 PM 57.2 °F - 33.8 °F 41% 29.92 in 15.0 mi West 20.7 mph 28.8 mph N/A   Partly Cloudy
4:00 PM 57.2 °F - 33.8 °F 41% 29.93 in 15.0 mi West 20.7 mph 27.6 mph N/A   Mostly Cloudy
5:00 PM 60.8 °F - 35.6 °F 39% 29.93 in 15.0 mi West 15.0 mph 23.0 mph N/A   Partly Cloudy
6:00 PM 55.4 °F - 35.6 °F 47% 29.96 in 15.0 mi West 15.0 mph 21.9 mph N/A   Partly Cloudy
7:00 PM 51.8 °F - 39.2 °F 62% 29.97 in 15.0 mi West 5.8 mph - N/A   Partly Cloudy
8:00 PM 48.2 °F - 39.2 °F 71% 30.01 in 15.0 mi West 5.8 mph - N/A   Partly Cloudy
9:00 PM 50.0 °F - 37.4 °F 62% 30.02 in 15.0 mi West 9.2 mph - N/A   Clear
10:00 PM 48.2 °F - 35.6 °F 62% 30.05 in 15.0 mi West 8.1 mph - N/A   Clear
11:00 PM 46.4 °F 42.4 °F 37.4 °F 71% 30.06 in 15.0 mi WNW 8.1 mph - N/A   Clear